Preview of NWS' New Version of Forecast
This preview is not operational and should not be used for support decisions.

Regional Weather Roundup (RWR)

Issued by National Weather Service (NWS)

                            
000
ASUS44 KMEG 182010
RWRTN 
TENNESSEE HOURLY STATE WEATHER ROUNDUP
NATIONAL WEATHER SERVICE MEMPHIS TN
200 PM CST FRI JAN 18 2019

TNZ002-004-019-021-049-052-054-088>092-182100-
WEST TENNESSEE
  
CITY           SKY/WX    TMP DP  RH WIND       PRES   REMARKS
MEMPHIS INTL   CLOUDY    51  47  86 E6        30.01F                  
NWS MEMPHIS      N/A     49 N/A N/A MISG        N/A                   
JACKSON        CLOUDY    47  44  90 E5        30.04F                  
DYERSBURG      FAIR      49  42  77 VRB7      30.03F                  
SOMERVILLE     CLOUDY    50  46  87 CALM      30.01F                  
COVINGTON      CLOUDY    50  45  81 SE9       30.02F                  
UNION CITY     CLOUDY    46  41  81 E6        30.04F                  
BOLIVAR        CLOUDY    50  46  87 E6        30.02F                  
PARIS          CLOUDY    45  41  87 E5        30.05F                  
HUNTINGDON     CLOUDY    46  43  87 E5        30.05F                  
LEXINGTON      CLOUDY    48  45  87 NE5       30.04F                  
SELMER         CLOUDY    48  46  93 CALM      30.02F                  
SAVANNAH       CLOUDY    52  50  93 CALM      30.03F                  
$$

TNZ008-025-027-028-033-062-065-066-182100-
NORTH MIDDLE TENNESSEE
  
CITY           SKY/WX    TMP DP  RH WIND       PRES   REMARKS
NASHVILLE      CLOUDY    48  40  73 E5        30.07F                  
DICKSON        CLOUDY    43  41  93 CALM      30.05F                  
CLARKSVILLE    CLOUDY    45  37  73 CALM      30.07F                  
LEBANON        CLOUDY    48  43  81 E5        30.06S                  
SMYRNA         CLOUDY    48  44  86 E5        30.08F                  
MURFREESBORO   CLOUDY    48  45  87 SE3       30.05S                  
COOKEVILLE     CLOUDY    48  45  87 NE5       30.04F                  
LIVINGSTON     CLOUDY    45  41  87 CALM      30.05F                  
CROSSVILLE     CLOUDY    48  42  80 CALM      30.06F                  
ROCKWOOD       CLOUDY    46  45  93 CALM      30.07S                  
$$

TNZ061-075-076-078-094-096-097-182100-
SOUTH MIDDLE TENNESSEE
  
CITY           SKY/WX    TMP DP  RH WIND       PRES   REMARKS
LAWRENCEBURG   CLOUDY    50  46  87 CALM      30.04F                  
LEWISBURG      CLOUDY    48  46  93 CALM      30.06S                  
FAYETTEVILLE   CLOUDY    54  52  94 S8        30.03F                  
TULLAHOMA      CLOUDY    52  48  87 VRB3      30.04F                  
WINCHESTER     CLOUDY    54  48  82 CALM      30.04F                  
MCMINNVILLE    CLOUDY    48  46  93 CALM      30.06S                  
COLUMBIA       CLOUDY    48  48 100 E5        30.04F                  
SHELBYVILLE    CLOUDY    50  48  93 SE5       30.05F                  
$$

TNZ017-018-042-046-047-182100-
NORTHEAST TENNESSEE
  
CITY           SKY/WX    TMP DP  RH WIND       PRES   REMARKS
TRI CITIES     CLOUDY    49  42  77 CALM      30.08F                  
ELIZABETHTON   CLOUDY    48  43  81 CALM      30.07F                  
GREENEVILLE    CLOUDY    46  43  87 CALM      30.07F                  
$$

TNZ012-013-036-069-073-074-182100-
CENTRAL EAST TENNESSEE
  
CITY           SKY/WX    TMP DP  RH WIND       PRES   REMARKS
KNOXVILLE      CLOUDY    51  46  83 CALM      30.07F                  
OAK RIDGE      CLOUDY    49  47  93 CALM      30.10S                  
DOWNTOWN KNOXV CLOUDY    52  46  82 CALM      30.09S                  
GATLINBURG     CLOUDY    50  46  87 CALM      30.08S                  
MORRISTOWN     CLOUDY    48  43  81 CALM      30.07S                  
JACKSBORO      CLOUDY    48  43  81 CALM      30.12R                  
$$

TNZ083-085-099-182100-
SOUTHEAST TENNESSEE
  
CITY           SKY/WX    TMP DP  RH WIND       PRES   REMARKS
CHATTANOOGA    CLOUDY    53  47  79 CALM      30.08F                  
DAYTON         CLOUDY    50  48  93 CALM      30.08S                  
$$

SKY/WX REPORTED AS FAIR MEANS FEW OR NO CLOUDS BELOW
12 THOUSAND FEET.